TimeEDT,TemperatureF,Dew PointF,Humidity,Sea Level PressureIn,VisibilityMPH,Wind Direction,Wind SpeedMPH,Gust SpeedMPH,PrecipitationIn,Events,Conditions,WindDirDegrees,DateUTC
12:58 AM,75.0,74.7,99,30.12,10.0,Calm,Calm,-,N/A,,Clear,0,2013-07-10 04:58:00
1:58 AM,73.4,73.4,100,30.12,10.0,WNW,2.3,-,N/A,,Clear,290,2013-07-10 05:58:00
2:58 AM,72.7,72.7,100,30.11,10.0,Calm,Calm,-,N/A,,Clear,0,2013-07-10 06:58:00
3:58 AM,72.9,72.9,100,30.10,10.0,SE,2.3,-,N/A,,Clear,140,2013-07-10 07:58:00
4:58 AM,72.7,72.7,100,30.09,10.0,Calm,Calm,-,N/A,,Partly Cloudy,0,2013-07-10 08:58:00
5:58 AM,71.8,71.8,100,30.09,10.0,WNW,1.2,-,N/A,,Clear,300,2013-07-10 09:58:00
6:58 AM,71.6,71.6,100,30.10,10.0,ENE,1.2,-,N/A,,Clear,60,2013-07-10 10:58:00
7:58 AM,74.8,74.8,100,30.10,10.0,SSW,2.3,-,N/A,,Partly Cloudy,210,2013-07-10 11:58:00
8:58 AM,77.5,76.6,97,30.12,10.0,SSW,4.6,-,N/A,,Clear,200,2013-07-10 12:58:00
9:58 AM,81.0,75.0,82,30.11,10.0,South,8.1,-,N/A,,Partly Cloudy,170,2013-07-10 13:58:00
10:58 AM,83.8,74.1,72,30.11,10.0,South,6.9,-,N/A,,Clear,180,2013-07-10 14:58:00
11:58 AM,85.3,73.9,69,30.10,10.0,SSE,5.8,-,N/A,,Partly Cloudy,150,2013-07-10 15:58:00
12:58 PM,86.9,73.2,64,30.09,10.0,Variable,3.5,-,N/A,,Partly Cloudy,0,2013-07-10 16:58:00
1:58 PM,88.3,70.7,56,30.07,10.0,SE,4.6,-,N/A,,Mostly Cloudy,130,2013-07-10 17:58:00
2:58 PM,87.8,71.6,58,30.05,10.0,Variable,2.3,-,N/A,,Partly Cloudy,0,2013-07-10 18:58:00
3:58 PM,90.0,75.4,62,30.03,10.0,West,15.0,-,N/A,,Clear,280,2013-07-10 19:58:00
4:58 PM,87.8,74.8,65,30.00,10.0,Variable,2.3,-,N/A,,Clear,0,2013-07-10 20:58:00
5:58 PM,88.3,74.7,64,29.99,10.0,Variable,4.6,-,N/A,,Clear,0,2013-07-10 21:58:00
6:58 PM,88.9,75.2,64,29.99,10.0,Variable,3.5,-,N/A,,Mostly Cloudy,0,2013-07-10 22:58:00
7:48 PM,82.4,77.0,84,29.99,10.0,South,6.9,-,N/A,Rain,Light Rain,170,2013-07-10 23:48:00
7:58 PM,80.1,77.4,91,30.00,10.0,South,4.6,-,0.00,Rain,Light Rain,170,2013-07-10 23:58:00
8:07 PM,78.8,77.0,94,29.98,10.0,East,5.8,-,N/A,,Mostly Cloudy,100,2013-07-11 00:07:00
8:58 PM,78.3,77.4,97,30.01,10.0,NE,1.2,-,0.00,,Mostly Cloudy,40,2013-07-11 00:58:00
9:58 PM,77.5,77.2,99,30.02,10.0,ESE,3.5,-,N/A,,Clear,120,2013-07-11 01:58:00
10:58 PM,77.0,77.0,100,30.03,10.0,SSE,3.5,-,N/A,,Partly Cloudy,150,2013-07-11 02:58:00
11:38 PM,77.0,75.2,94,30.02,9.0,South,5.8,-,N/A,,Overcast,180,2013-07-11 03:38:00
11:48 PM,77.0,75.2,94,30.02,10.0,SSW,4.6,-,N/A,,Overcast,200,2013-07-11 03:48:00
11:58 PM,76.3,75.7,98,30.03,10.0,South,4.6,-,N/A,,Overcast,190,2013-07-11 03:58:00